Overview Statistics Trail Chart Weather Telemetry Raw packets
 

This is the latest recevied weather packets stored in our database for station/object N0QV. If no packets are shown the sender has not sent any weather packets the latest 10 day(s).

<< 32 33 34 35 36 37 38 >>
Time Temp. Humidity Pressure Rain* Wind** Luminosity Snow
1788450271 27.78° C 68% 1010.2 hPa 0 mm - 159 W/m² -
1788449966 28.33° C 66% 1010.1 hPa 0 mm - 570 W/m² -
1788449662 28.33° C 67% 1010.1 hPa 0 mm - 327 W/m² -
1788449358 27.78° C 68% 1010.2 hPa 0 mm - 502 W/m² -
1788449054 27.22° C 70% 1010.2 hPa 0 mm - 492 W/m² -
1788448754 27.22° C 71% 1010.2 hPa 0 mm - 271 W/m² -
1788448449 27.78° C 70% 1010.1 hPa 0 mm - 195 W/m² -
1788448144 27.78° C 72% 1010.2 hPa 0 mm - 482 W/m² -
1788447838 26.67° C 74% 1010.4 hPa 0 mm - 431 W/m² -
1788447533 26.11° C 75% 1010.3 hPa 0 mm - 129 W/m² -
1788447229 26.11° C 73% 1010.2 hPa 0 mm - 202 W/m² -
1788446928 26.11° C 73% 1010.2 hPa 0 mm - 360 W/m² -
1788446623 26.67° C 70% 1010.1 hPa 0 mm - 179 W/m² -
1788446318 26.67° C 72% 1010.3 hPa 0 mm - 187 W/m² -
1788446015 25.56° C 74% 1010.3 hPa 0 mm - 315 W/m² -
1788445711 25.56° C 73% 1010.2 hPa 0 mm - 145 W/m² -
1788445406 25° C 75% 1010.3 hPa 0 mm - 111 W/m² -
1788445102 24.44° C 79% 1010.2 hPa 0 mm - 228 W/m² -
1788444798 24.44° C 78% 1010 hPa 0 mm - 103 W/m² -
1788444498 24.44° C 77% 1010.1 hPa 0 mm - 58 W/m² -
1788444193 25° C 75% 1010 hPa 0 mm - 75 W/m² -
1788443889 25° C 76% 1010.1 hPa 0 mm - 98 W/m² -
1788443584 23.89° C 80% 1010 hPa 0 mm - 223 W/m² -
1788443282 23.89° C 81% 1009.8 hPa 0 mm - 117 W/m² -
1788442978 23.33° C 81% 1010 hPa 0 mm - 106 W/m² -

* Rain latest hour (hover to see other rain measurements)
** Current wind speed in m/s (hover to see current wind gust speed)